When you browse on this site, cookies collect data to enhance your experience and personalize the content and advertising you see.
Visit our Privacy Policy to learn more. By continuing to use the site, you agree to this use of cookies and data.
  • In Hungary
  • List of Countries
  • For 7 days
  • Water Temperature
  • Weather Map
  • News
  • Weather Widgets
  • user-avatar
    Login

    Hourly Weather Novoboriskino

    Today, 26 February, Wednesday

    Time Temperature Precipitation Wind Pressure Humidity
    00:00 -1°C° 1.6 mm 4 mps 730 mmHg 98%
    01:00 0°C° 1.6 mm 3 mps 730 mmHg 98%
    02:00 -1°C° 0.4 mm 3 mps 729 mmHg 98%
    03:00 -1°C° 0.4 mm 3 mps 729 mmHg 98%
    04:00 -1°C° 0.4 mm 3 mps 729 mmHg 98%
    05:00 -2°C° 0.1 mm 3 mps 729 mmHg 98%
    06:00 -4°C° 0.1 mm 3 mps 729 mmHg 97%
    07:00 -4°C° 0.1 mm 3 mps 729 mmHg 97%
    08:00 -4°C° 0.1 mm 4 mps 729 mmHg 95%
    09:00 -5°C° 0.1 mm 6 mps 730 mmHg 94%
    10:00 -4°C° 0.1 mm 7 mps 731 mmHg 92%
    11:00 -6°C° 0.1 mm 8 mps 731 mmHg 92%
    12:00 -6°C° 0.1 mm 8 mps 732 mmHg 91%
    13:00 -6°C° 0.1 mm 9 mps 733 mmHg 90%
    14:00 -7°C° 0 mm 8 mps 734 mmHg 90%
    15:00 -7°C° 0 mm 8 mps 735 mmHg 89%
    16:00 -7°C° 0 mm 8 mps 735 mmHg 88%
    17:00 -7°C° 0 mm 7 mps 736 mmHg 88%
    18:00 -8°C° 0 mm 7 mps 737 mmHg 88%
    19:00 -8°C° 0 mm 6 mps 738 mmHg 89%
    20:00 -8°C° 0 mm 5 mps 739 mmHg 91%
    21:00 -10°C° 0 mm 5 mps 739 mmHg 92%
    22:00 -10°C° 0 mm 4 mps 740 mmHg 94%
    23:00 -10°C° 0 mm 3 mps 740 mmHg 94%

    Tomorrow, 27 February, Thursday

    Time Temperature Precipitation Wind Pressure Humidity
    00:00 -12°C° 0 mm 3 mps 741 mmHg 93%
    01:00 -12°C° 0 mm 3 mps 741 mmHg 93%
    02:00 -12°C° 0 mm 3 mps 741 mmHg 92%
    03:00 -12°C° 0 mm 3 mps 741 mmHg 92%
    04:00 -10°C° 0 mm 3 mps 741 mmHg 92%
    05:00 -10°C° 0 mm 3 mps 741 mmHg 93%
    06:00 -10°C° 0 mm 4 mps 741 mmHg 94%
    07:00 -9°C° 0 mm 4 mps 741 mmHg 95%
    08:00 -7°C° 0.3 mm 5 mps 741 mmHg 95%
    09:00 -5°C° 0.3 mm 6 mps 741 mmHg 96%
    10:00 -3°C° 0.3 mm 6 mps 741 mmHg 97%
    11:00 -3°C° 0.4 mm 7 mps 741 mmHg 98%
    12:00 -2°C° 0.4 mm 7 mps 741 mmHg 98%
    13:00 -2°C° 0.4 mm 7 mps 742 mmHg 98%
    14:00 -2°C° 0.1 mm 7 mps 742 mmHg 98%
    15:00 -2°C° 0.1 mm 7 mps 742 mmHg 98%
    16:00 -2°C° 0.1 mm 7 mps 742 mmHg 97%
    17:00 -2°C° 0 mm 6 mps 742 mmHg 94%
    18:00 -3°C° 0 mm 6 mps 743 mmHg 91%
    19:00 -2°C° 0 mm 5 mps 743 mmHg 88%
    20:00 -2°C° 0 mm 5 mps 743 mmHg 88%
    21:00 -3°C° 0 mm 6 mps 743 mmHg 88%
    22:00 -2°C° 0 mm 6 mps 743 mmHg 87%
    23:00 -2°C° 0.1 mm 6 mps 742 mmHg 88%

    Day after tomorrow, 28 February, Friday

    Time Temperature Precipitation Wind Pressure Humidity
    00:00 -2°C° 0.1 mm 7 mps 742 mmHg 89%
    01:00 -1°C° 0.1 mm 7 mps 742 mmHg 89%
    02:00 -1°C° 0 mm 7 mps 742 mmHg 89%
    03:00 -1°C° 0 mm 8 mps 742 mmHg 90%
    04:00 -1°C° 0 mm 8 mps 741 mmHg 90%
    05:00 -2°C° 0 mm 8 mps 741 mmHg 89%
    06:00 -2°C° 0 mm 8 mps 741 mmHg 88%
    07:00 -2°C° 0 mm 7 mps 741 mmHg 88%
    08:00 -2°C° 0 mm 7 mps 742 mmHg 87%
    09:00 -2°C° 0 mm 8 mps 742 mmHg 87%
    10:00 -2°C° 0 mm 8 mps 742 mmHg 87%
    11:00 -2°C° 0 mm 8 mps 742 mmHg 89%
    12:00 -2°C° 0 mm 7 mps 743 mmHg 91%
    13:00 -2°C° 0 mm 7 mps 743 mmHg 93%
    14:00 -2°C° 0 mm 7 mps 743 mmHg 91%
    15:00 -2°C° 0 mm 7 mps 743 mmHg 89%
    16:00 -2°C° 0 mm 7 mps 743 mmHg 87%
    17:00 -2°C° 0 mm 7 mps 743 mmHg 86%
    18:00 -3°C° 0 mm 7 mps 743 mmHg 85%
    19:00 -3°C° 0 mm 7 mps 742 mmHg 83%
    20:00 -3°C° 0 mm 7 mps 742 mmHg 83%
    21:00 -3°C° 0 mm 7 mps 742 mmHg 83%
    22:00 -3°C° 0 mm 7 mps 742 mmHg 83%
    23:00 -3°C° 0 mm 7 mps 742 mmHg 84%

    29 February, Saturday

    Time Temperature Precipitation Wind Pressure Humidity
    00:00 -3°C° 0 mm 7 mps 742 mmHg 85%
    01:00 -3°C° 0 mm 7 mps 742 mmHg 86%
    02:00 -3°C° 0 mm 7 mps 741 mmHg 87%
    03:00 -4°C° 0 mm 7 mps 741 mmHg 87%
    04:00 -4°C° 0 mm 7 mps 741 mmHg 88%
    05:00 -5°C° 0 mm 6 mps 740 mmHg 88%
    06:00 -5°C° 0 mm 6 mps 740 mmHg 88%
    07:00 -6°C° 0 mm 6 mps 740 mmHg 89%
    08:00 -5°C° 0 mm 6 mps 739 mmHg 89%
    09:00 -5°C° 0 mm 6 mps 739 mmHg 90%
    10:00 -5°C° 0 mm 6 mps 739 mmHg 90%
    11:00 -5°C° 0 mm 6 mps 739 mmHg 90%
    12:00 -4°C° 0 mm 6 mps 739 mmHg 91%
    13:00 -4°C° 0 mm 6 mps 738 mmHg 92%
    14:00 -4°C° 0.3 mm 6 mps 738 mmHg 93%
    15:00 -2°C° 0.3 mm 5 mps 738 mmHg 95%
    16:00 -2°C° 0.3 mm 5 mps 738 mmHg 97%
    17:00 -3°C° 0.1 mm 4 mps 738 mmHg 97%
    18:00 -3°C° 0.1 mm 4 mps 738 mmHg 97%
    19:00 -2°C° 0.1 mm 3 mps 739 mmHg 97%
    20:00 -2°C° 0 mm 3 mps 739 mmHg 97%
    21:00 -2°C° 0 mm 3 mps 740 mmHg 97%
    22:00 -1°C° 0 mm 3 mps 740 mmHg 96%
    23:00 -2°C° 0 mm 3 mps 741 mmHg 97%

    1 March, Sunday

    Time Temperature Precipitation Wind Pressure Humidity
    00:00 -2°C° 0 mm 3 mps 741 mmHg 97%
    01:00 -2°C° 0 mm 2 mps 742 mmHg 97%
    02:00 -3°C° 0 mm 2 mps 742 mmHg 96%
    03:00 -4°C° 0 mm 2 mps 743 mmHg 96%
    04:00 -5°C° 0 mm 2 mps 743 mmHg 96%
    05:00 -6°C° 0 mm 2 mps 743 mmHg 95%
    06:00 -6°C° 0 mm 1 mps 744 mmHg 94%
    07:00 -7°C° 0 mm 1 mps 744 mmHg 94%
    08:00 -6°C° 0 mm 1 mps 745 mmHg 93%
    09:00 -5°C° 0 mm 0 mps 745 mmHg 92%
    10:00 -4°C° 0 mm 0 mps 746 mmHg 91%
    11:00 -3°C° 0 mm 0 mps 746 mmHg 90%
    12:00 -2°C° 0 mm 0 mps 746 mmHg 89%
    13:00 -2°C° 0 mm 0 mps 747 mmHg 87%
    14:00 -2°C° 0 mm 0 mps 747 mmHg 89%
    15:00 -2°C° 0 mm 0 mps 746 mmHg 90%
    16:00 -2°C° 0 mm 0 mps 746 mmHg 92%
    17:00 -3°C° 0 mm 0 mps 747 mmHg 92%
    18:00 -5°C° 0 mm 0 mps 747 mmHg 92%
    19:00 -6°C° 0 mm 1 mps 747 mmHg 92%
    20:00 -6°C° 0 mm 0 mps 747 mmHg 91%
    21:00 -6°C° 0 mm 0 mps 747 mmHg 91%
    22:00 -7°C° 0 mm 0 mps 747 mmHg 91%
    23:00 -6°C° 0 mm 0 mps 747 mmHg 91%

    2 March, Monday

    Time Temperature Precipitation Wind Pressure Humidity
    00:00 -6°C° 0 mm 0 mps 747 mmHg 91%
    01:00 -6°C° 0 mm 0 mps 748 mmHg 91%
    02:00 -7°C° 0 mm 0 mps 748 mmHg 91%
    03:00 -7°C° 0 mm 0 mps 748 mmHg 92%
    04:00 -8°C° 0 mm 0 mps 748 mmHg 92%
    05:00 -8°C° 0 mm 0 mps 748 mmHg 93%
    06:00 -8°C° 0 mm 0 mps 748 mmHg 93%
    07:00 -9°C° 0 mm 0 mps 748 mmHg 93%
    08:00 -8°C° 0 mm 0 mps 749 mmHg 92%
    09:00 -6°C° 0 mm 0 mps 749 mmHg 92%
    10:00 -5°C° 0 mm 0 mps 749 mmHg 91%
    11:00 -4°C° 0 mm 0 mps 749 mmHg 89%
    12:00 -2°C° 0 mm 1 mps 749 mmHg 87%
    13:00 -1°C° 0 mm 1 mps 749 mmHg 85%
    14:00 -1°C° 0 mm 1 mps 749 mmHg 86%
    15:00 -2°C° 0 mm 0 mps 749 mmHg 88%
    16:00 -2°C° 0 mm 0 mps 749 mmHg 90%
    17:00 -4°C° 0 mm 0 mps 749 mmHg 90%
    18:00 -5°C° 0 mm 0 mps 749 mmHg 90%
    19:00 -7°C° 0 mm 0 mps 749 mmHg 90%
    20:00 -7°C° 0 mm 0 mps 749 mmHg 90%
    21:00 -7°C° 0 mm 0 mps 749 mmHg 91%
    22:00 -8°C° 0 mm 1 mps 749 mmHg 92%
    23:00 -7°C° 0 mm 1 mps 749 mmHg 94%
    Show more